User: anonymous   Login
Location: The Jewett Observatory
(46.7288°N, 117.1525°W)
Time: 00:16:46
(UTC-07:00)
Language:

Cosmos 1844 Rocket - Orbit

View from above orbital plane
View from above orbital plane
View from above satellite
View from above satellite

Ground track
Ground track

The orbit data is extracted from the following two-line orbital elements,

1 17974U 87041B   15107.69351936  .00000003  00000-0  25325-4 0  9998
2 17974 071.0065 137.3684 0013446 171.9088 329.2745 14.17160140444541
Epoch (UTC): 17 April 2015 16:38:40
Eccentricity: 0.0013446
inclination: 71.0065°
perigee height: 825 km
apogee height: 844 km
right ascension of ascending node: 137.3684°
argument of perigee: 171.9088°
revolutions per day: 14.17160140
mean anomaly at epoch: 329.2745°
orbit number at epoch: 44454

The dashed part of the orbit path shows where the satellite is in the earth's shadow,  

DLR